Location: Central Falls
(41.8900°N, 71.3929°W)
Time: 03:35:17
(UTC+00:00)

Vanguard 2 Rocket - Pass Details

Date: 12 December 2023
Orbit: 555 x 3309 km, 32.9° (Epoch: 01 March)

Event Time Altitude Azimuth Distance (km) Brightness Sun altitude
Rises 16:48:35 0° 229° (SW) 4,936 11.3 25.0°
Reaches altitude 10° 16:51:30 10° 223° (SW) 4,265 11.2 25.0°
Maximum altitude 17:03:21 48° 154° (SSE) 3,202 10.8 24.8°
Drops below altitude 10° 17:21:04 10° 88° (E) 6,213 11.1 24.3°
Sets 17:26:22 0° 84° (E) 7,297 11.3 24.1°
